ONEWEB-0122, 47268

Orbit data source: Space-Track

ONEWEB-0122, 47268 is a payload satellite owned by One Web (UK) in LEO that was launched on Fri, 18 Dec 2020 UTC via a SOYUZ-2-1B launch vehicle from the Vostochny Cosmodrome (VOSTO). Payload-class satellites include a variety of spacecraft equipped with specific instruments for various scientific and technological missions. These include communications satellites like Starlink; space stations such as the ISS; scientific satellites like the Hubble; Earth observation satellites from companies like Planet Labs, Umbra, and HawkEye 360; GPS; miniature CubeSats for education and research; and military/defense satellites.

Loading next visibility...
Identifier
47268, 2020-100L
Orbit
LEO
Country
Flag of UKUK
Related business
Manufacturer
One Web
Mission
Operational Commercial Communications
Bus & Motor
ARROW, Unknown motor
Mass
148 kg wet, ~140 kg dry
Launch date (UTC)
2020-12-18 (5 years ago)
Launch vehicle
SOYUZ-2-1B
Launch site
Vostochny Cosmodrome (VOSTO)
Object type
Payload
Rocket body
Debris
Shape & HBR
Trap Box + 2 Pan, 6.7 m
Radar Cross Section
3.464 m², Large (>1 m²)

Expand to show TLE details & history
Last TLE update: 9 hours ago

TLE from 9 hours ago
0 ONEWEB-0122
1 47268U 20100L   26095.17583580  .00000005  00000-0 -21909-4 0  9990
2 47268  87.9020   5.1564 0001932  75.8470 284.2873 13.12445576254971
Epoch: 2026-04-05T04:13Z
TLE epoch observation values (Epoch: 2026-04-05T04:13:12.213Z)
Latitude
-0.00001°
Longitude
108.37049°
Altitude
1,216.242 km
Speed
7.246 km/s
True Right ascension
00h 20m 37s
True Declination
0° 00' 00"
Sunlit
Object was in daylight at epoch
Visualization orbit readout
Latitude
Unknown
Longitude
Unknown
Altitude
Unknown
Speed
Unknown
Apparent Right ascension
Unknown
Apparent Declination
Unknown
Sunlit
N/A
Visualization observer readout
Local Sidereal Time
19:01:01
Azimuth
Unknown
Elevation
Unknown
Doppler factor
Unknown
Orbital elements
Apogee altitude
1,212.296 km
Perigee altitude
1,209.364 km
Semi-major axis
7,588.967 km
Eccentricity
0.00019
Inclination
87.902°
RAAN
5.1564°
Arg. of periapsis
75.847°
True anomaly
284.26584°
Mean anomaly
284.2873°
Eccentric anomaly
284.27657°
Mean motion
3.28299 °/min
Orbital period
109.66 mins
BSTAR
-0.000021909
Loading maneuver chart data...
Computing Atmospheric mass density...
Loading historical data...
Loading historical data...
Loading historical data...
Loading historical data...
Loading historical data...
Loading historical data...
Loading historical data...

Documentation

Showing up to 5 results
|